TimeEST,TemperatureF,Dew PointF,Humidity,Sea Level PressureIn,VisibilityMPH,Wind Direction,Wind SpeedMPH,Gust SpeedMPH,PrecipitationIn,Events,Conditions,WindDirDegrees,DateUTC
12:51 AM,43.0,33.1,68,29.53,10.0,WNW,6.9,20.7,N/A,,Mostly Cloudy,300,2012-12-19 05:51:00
1:51 AM,41.0,33.1,73,29.55,10.0,WNW,6.9,-,N/A,,Overcast,290,2012-12-19 06:51:00
2:51 AM,41.0,32.0,70,29.56,10.0,WNW,11.5,18.4,N/A,,Mostly Cloudy,300,2012-12-19 07:51:00
3:51 AM,41.0,32.0,70,29.57,10.0,West,11.5,-,N/A,,Mostly Cloudy,280,2012-12-19 08:51:00
4:51 AM,39.9,30.9,70,29.57,10.0,NW,17.3,24.2,N/A,,Mostly Cloudy,310,2012-12-19 09:51:00
5:51 AM,39.9,30.9,70,29.59,10.0,NW,6.9,-,N/A,,Mostly Cloudy,310,2012-12-19 10:51:00
6:51 AM,39.9,30.9,70,29.62,10.0,NW,12.7,23.0,N/A,,Mostly Cloudy,320,2012-12-19 11:51:00
7:51 AM,41.0,30.0,65,29.64,10.0,NW,15.0,19.6,N/A,,Mostly Cloudy,320,2012-12-19 12:51:00
8:51 AM,43.0,30.0,60,29.65,10.0,WNW,15.0,19.6,N/A,,Mostly Cloudy,300,2012-12-19 13:51:00
9:51 AM,43.0,28.9,58,29.67,10.0,NW,17.3,28.8,N/A,,Mostly Cloudy,310,2012-12-19 14:51:00
10:51 AM,44.1,28.9,55,29.69,10.0,NW,18.4,24.2,N/A,,Mostly Cloudy,320,2012-12-19 15:51:00
11:51 AM,44.1,28.9,55,29.71,10.0,NNW,12.7,20.7,N/A,,Mostly Cloudy,330,2012-12-19 16:51:00
12:51 PM,44.1,28.9,55,29.74,10.0,NNW,12.7,23.0,N/A,,Overcast,340,2012-12-19 17:51:00
1:51 PM,44.1,28.9,55,29.77,10.0,NW,17.3,27.6,N/A,,Mostly Cloudy,310,2012-12-19 18:51:00
2:51 PM,44.1,28.9,55,29.80,10.0,NNW,13.8,-,N/A,,Overcast,340,2012-12-19 19:51:00
3:51 PM,43.0,28.9,58,29.81,10.0,NW,17.3,25.3,N/A,,Mostly Cloudy,320,2012-12-19 20:51:00
4:51 PM,42.1,28.0,58,29.86,10.0,NNW,21.9,27.6,N/A,,Mostly Cloudy,330,2012-12-19 21:51:00
5:51 PM,42.1,28.0,58,29.90,10.0,NW,16.1,24.2,N/A,,Mostly Cloudy,320,2012-12-19 22:51:00
6:51 PM,42.1,28.0,58,29.94,10.0,NW,15.0,19.6,N/A,,Mostly Cloudy,320,2012-12-19 23:51:00
7:51 PM,39.9,27.0,60,29.98,10.0,NW,10.4,18.4,N/A,,Scattered Clouds,320,2012-12-20 00:51:00
8:51 PM,39.9,27.0,60,30.01,10.0,NW,12.7,-,N/A,,Mostly Cloudy,310,2012-12-20 01:51:00
9:51 PM,39.0,26.1,60,30.04,10.0,NW,11.5,-,N/A,,Scattered Clouds,310,2012-12-20 02:51:00
10:51 PM,37.9,25.0,60,30.05,10.0,NW,10.4,-,N/A,,Partly Cloudy,310,2012-12-20 03:51:00
11:51 PM,36.0,25.0,64,30.07,10.0,NNW,5.8,-,N/A,,Partly Cloudy,330,2012-12-20 04:51:00